www.pogodaiklimat.ru

Погода и климат >> Архив погоды >> Россия >> Владимирская область >> Владимир


АРХИВ ПОГОДЫ в Владимире

Время (UTC), дата Ветер
(напр.,м/с)
 
Видим.   Явления Облачность Т
(С)
Тd
(С)
f
(%)
Тe
(С)
Тes
(С)
Комфортность P
(гПа)
Po
(гПа)
Тmin
(С)
Tmax
(С)
R
(мм)
R24
(мм)
S
(см)
15 13.07 С 1 10 км 9/6 700 м
[Cb cap Ac trans]
+16.3 +8.9 62 +17 +18 прохладно 1009.1 989.0 +18.5 5
18 13.07 штиль 0 10 км 8/3 600 м
[Sc Ac trans]
+13.0 +10.8 86 +13 +13 холодно 1010.0 989.7
21 13.07 З 1 4000 м дымка 6/0
[Ac trans]
+10.6 +9.3 92 +10 +10 холодно 1010.7 990.1
00 14.07 СЗ 2 4000 м дымка 8/0
[Ac trans]
+9.8 +8.5 92 +8 +8 холодно 1010.9 990.3
03 14.07 штиль 0 4000 м дымка 8/0
[Ac trans]
+11.9 +10.2 89 +11 +12 холодно 1011.2 990.7 +9.7
06 14.07 штиль 0 10 км 8/0
[Ac trans]
+17.9 +7.6 51 +18 +24 по сезону 1010.8 990.8
09 14.07 Ю 1 10 км в посл. час ливневой дождь 9/6 840 м
[Cb cap Ac trans]
+15.6 +11.7 78 +16 +20 холодно 1011.3 991.1
12 14.07 З 2 10 км {ливн. осадки} 8/5 600 м
[Sc Ac trans]
+18.6 +7.9 50 +20 +23 прохладно 1010.7 990.7
15 14.07 С 2 10 км 8/4 600 м
[Sc Ac trans]
+17.1 +9.0 59 +17 +18 прохладно 1011.1 991.0 +20.4 1
18 14.07 ЮЗ 1 10 км 3/0
[Ac trans]
+12.0 +9.4 84 +12 +12 холодно 1011.6 991.2
21 14.07 ЮЗ 1 10 км 3/0
[Ac trans]
+8.7 +7.3 91 +8 +8 очень
холодно
1011.8 991.1
00 15.07 ЮЗ 1 4000 м дымка 3/0
[Ac trans]
+8.2 +6.9 92 +7 +7 очень
холодно
1011.8 991.0
03 15.07 штиль 0 4000 м дымка 6/0
[Ac trans Ci fib]
+10.9 +9.9 94 +10 +12 очень
холодно
1011.9 991.3 +7.1
06 15.07 ЮЗ 1 10 км 8/0
[Ac trans Ci fib]
+18.9 +8.2 50 +21 +28 комфорт 1011.2 991.3
09 15.07 З 1 10 км 9/8 600 м
[Cu hum Ci fib]
+21.1 +6.4 38 +22 +25 комфорт 1010.5 990.7
12 15.07 ЮЗ 3 10 км 9/8 600 м
[Cu Sc Ac trans]
+20.2 +7.8 45 +22 +23 комфорт 1010.6 990.7
15 15.07 СЗ 1 10 км 9/5 600 м
[Sc Ac trans]
+19.4 +10.3 56 +22 +22 комфорт 1010.6 990.7 +22.0
18 15.07 штиль 0 10 км 9/0
[Ac trans]
+16.2 +12.2 77 +16 +16 прохладно 1011.0 990.9
21 15.07 З 2 10 км 9/0
[Ac trans]
+14.4 +10.9 79 +14 +14 прохладно 1011.2 991.0
00 16.07 штиль 0 4000 м дымка 4/0
[Ac trans]
+10.7 +9.3 91 +10 +10 холодно 1011.7 991.2
03 16.07 штиль 0 4000 м дымка 6/0
[Ac trans]
+13.0 +11.6 91 +12 +14 холодно 1012.3 991.9 +10.3
06 16.07 Ю 1 10 км 8/5 600 м
[Sc Ac trans]
+18.4 +10.4 60 +20 +23 по сезону 1011.9 991.8
09 16.07 Ю 2 10 км 8/5 600 м
[Cu hum Ac trans]
+20.4 +11.1 55 +23 +27 комфорт 1011.7 991.8
12 16.07 ЮВ 1 10 км 9/3 600 м
[Sc Ac trans]
+21.6 +10.3 49 +23 +28 комфорт 1011.1 991.3
15 16.07 В 1 10 км 8/4 600 м
[Cu med, cong Ac trans]
+22.0 +11.5 51 +24 +25 комфорт 1010.0 990.3 +23.1
18 16.07 В 1 10 км {гроза, ливн. осадки} 8/8 600 м
[Cb cap]
+16.4 +12.9 80 +17 +17 прохладно 1010.4 990.3
21 16.07 Ю 1 10 км 8/8 600 м
[Cb cap]
+17.6 +11.7 68 +19 +19 тепло 1010.2 990.2
00 17.07 СВ 2 10 км 8/3 600 м
[Sc Ac trans]
+13.8 +9.7 76 +13 +13 по сезону 1009.8 989.7
03 17.07 штиль 0 10 км 8/4 600 м
[Sc Ac trans]
+15.4 +13.3 87 +15 +16 по сезону 1009.7 989.4 +13.5 0.0
06 17.07 В 1 10 км 9/5 600 м
[Sc Ac trans Ci fib]
+20.5 +13.8 65 +24 +27 комфорт 1009.3 989.1
09 17.07 Ю 1 10 км 9/6 600 м
[Cb cap Ac trans]
+20.4 +12.3 60 +24 +27 комфорт 1008.6 988.8
12 17.07 В 3 10 км 10/6 600 м
[Cb cap Ac und]
+17.2 +12.3 73 +17 +18 очень
холодно
1008.7 988.6
15 17.07 В 2 4000 м слаб. ливневой дождь 10/8 300 м
[Cb cap Ac und]
+16.2 +14.4 89 +16 +16 холодно 1006.9 986.8 +21.4
18 17.07 В 1 4000 м слаб. ливневой дождь 10/8 300 м
[Cb cap Ac und]
+16.0 +14.7 92 +17 +17 по сезону 1006.4 986.4
21 17.07 В 1 4000 м слаб. ливневой дождь 10/8 210 м
[Cb cap Ac und]
+15.6 +14.7 94 +16 +16 по сезону 1005.0 985.0
00 18.07 штиль 0 4000 м слаб. ливневой дождь 10/8 210 м
[Cb cap Ac und]
+15.6 +14.7 94 +15 +15 по сезону 1003.8 983.8
03 18.07 Ю 1 4000 м дымка {ливн. осадки} 10/8 210 м
[St Ac und]
+15.8 +14.8 94 +16 +17 по сезону 1004.0 984.0 +15.5 14
06 18.07 Ю 2 4000 м дымка {ливн. осадки} 10/10 180 м
[Sc]
+17.2 +15.3 89 +18 +18 по сезону 1004.4 984.5
09 18.07 ЮЗ 5 10 км 9/9 480 м
[Sc diur, vesp]
+19.0 +14.1 73 +20 +21 по сезону 1005.4 985.6
12 18.07 Ю 2 10 км 8/8 600 м
[Cu med, cong]
+22.6 +13.2 55 +26 +28 жарко 1005.0 985.4
15 18.07 З 6
{11}
10 км слаб. ливневой дождь 9/9 630 м
[Cb cap]
+18.8 +11.8 64 +19 +19 прохладно 1005.9 986.1 +23.1 0.0
18 18.07 штиль 0 10 км {гроза, ливн. осадки} 8/8 600 м
[Cb cap]
+14.7 +13.0 90 +14 +14 холодно 1006.3 986.2
21 18.07 Ю 1 4000 м дымка 4/4 600 м
[Sc diur, vesp]
+14.4 +12.9 91 +15 +15 по сезону 1006.8 986.7
00 19.07 Ю 1 4000 м дымка 3/3 600 м
[Sc]
+12.8 +11.3 91 +13 +13 по сезону 1007.1 986.8
03 19.07 Ю 2 4000 м дымка 4/0
[Ci fib]
+12.9 +11.3 90 +12 +13 холодно 1006.8 986.5 +11.9 0.0
06 19.07 Ю 3 10 км слаб. ливневой дождь 10/6 600 м
[Cb calv Ac und]
+16.4 +11.6 73 +16 +17 прохладно 1006.0 986.0
09 19.07 Ю 2 10 км слаб. ливневой дождь 10/8 600 м
[Cb calv Ac und]
+15.3 +12.8 85 +15 +16 холодно 1006.2 986.1
12 19.07 Ю 3 500 м {ливн. осадки} 10/8 630 м
[Cb calv Ac und]
+17.8 +12.8 73 +18 +18 холодно 1006.0 986.1
15 19.07 ЮЗ 5
{10}
10 км {ливн. осадки} 6/3 600 м
[Sc diur, vesp Ac trans]
+19.4 +11.8 61 +20 +21 по сезону 1006.6 986.7 +19.4 1
18 19.07 ЮЗ 1 10 км {ливн. осадки} 8/3 600 м
[Sc Ac trans]
+15.0 +12.2 83 +16 +16 прохладно 1007.3 987.2
21 19.07 Ю 3 10 км {ливн. осадки} 8/4 600 м
[Sc Ac und]
+15.1 +13.0 87 +14 +14 прохладно 1007.3 987.2
00 20.07 ЮЗ 3 4000 м дымка 10/5 600 м
[Sc Ac und]
+14.1 +13.0 93 +13 +13 прохладно 1007.6 987.4
03 20.07 ЮЗ 3 4000 м дымка 8/5 240 м
[Sc Ac und]
+14.2 +12.7 91 +13 +13 холодно 1008.5 988.2 +13.8 0.0
06 20.07 З 4 10 км 10/10 330 м
[Sc]
+16.4 +12.8 79 +16 +16 холодно 1009.2 989.1
09 20.07 ЮЗ 4 10 км 9/6 600 м
[Cb cap Ac trans]
+19.2 +12.4 65 +20 +23 прохладно 1009.5 989.6
12 20.07 СЗ 2 10 км в посл. час ливневой дождь 9/6 700 м
[Cb cap Ac trans]
+20.0 +13.2 65 +23 +25 комфорт 1010.5 990.6

 

Местоположение метеостанции Владимир (Владимирская область, Россия): широта 56.12 долгота 40.35 высота над уровнем моря 172 м.

В архиве по умолчанию представлена погода в Владимире за последнюю неделю. Архивные данные за месяц целиком и за предыдущие месяцы, начиная с января 2011 года, Вы можете получить, выбрав интересующий диапазон дат из раскрывающегося списка и нажав кнопку "Ввод!".


*Определитесь, кто Вы:
робот инопланетянин человек

Внимание! Время в таблицах - всемирное. Для получения местного времени необходимо прибавить поправку, которая равна 3 ч.

Смотрите также архив погоды в соседних городах и на ближайших метеорологических станциях:

Погода в Суздале (Владимирская область, Россия) (34 км)
Погода в Юрьев-Польском (Владимирская область, Россия) (58 км)
Погода в Петушках (Владимирская область, Россия) (59 км)
Погода в Гусь-Хрустальный (Владимирская область, Россия) (61 км)
Погода в Черустях (Московская область, Россия) (67 км)
Погода в Коврове (Владимирская область, Россия) (67 км)
Погода в Тейково (Ивановская область, Россия) (82 км)
Погода в Иванове (Ивановская область, Россия) (100 км)
Погода в Александрове (Владимирская область, Россия) (104 км)
Погода в Шуе (Ивановская область, Россия) (104 км)

Пояснения к столбцам:

Ветер - указаны скорость ветра в м/с - средняя за 10 мин, порывы в срок и между сроками (в фигурных скобках) и направление, откуда дует ветер: С - северный, СВ - северо-восточный, В - восточный, ЮВ - юго-восточный, Ю - южный, ЮЗ - юго-западный, З - западный, СЗ - северо-западный.
Видимость - горизонтальная дальность видимости в метрах или километрах. При видимости от 1 до 10 км при отсутствии осадков обычно наблюдается дымка, при ухудшении видимости до 1 км и менее - туман. В сухую погоду видимость может ухудшаться дымом, пылью или мглою.
Явления - указаны атмосферные явления, наблюдавшиеся в срок или в последний час перед сроком; фигурными скобками обозначены явления, наблюдавшиеся между сроками (за 1-3 часа до срока); квадратными скобками обозначены град или гололедные отложения с указанием их диаметра в мм.
Облачность - указаны через наклонную черту общая и нижняя облачность в баллах и высота нижней границы облаков в метрах; квадратными скобками обозначены формы облаков: Ci - перистые, Cs - перисто-слоистые, Cc - перисто-кучевые, Ac - высококучевые, As - высокослоистые, Sc - слоисто-кучевые, Ns - слоисто-дождевые, Cu - кучевые, Cb - кучево-дождевые. Подробнее классификацию облаков см. в Атласе облаков (PDF).
T - Температура воздуха - температура, измеренная на высоте 2 м над землей.
Td - Температура точки росы - температура, при понижении до которой содержащийся в воздухе водяной пар достигнет насыщения.
f - Относительная влажность воздуха - влажноcть воздуха, измеренная на высоте 2 м над землей.
Te - Эффективная температура - температура, которую ощущает одетый по сезону человек в тени. Характеристика душности погоды. При расчете учитывается влияние влажности воздуха и скорости ветра на теплоощущения человека.
Tes - Эффективная температура на солнце - температура, которую ощущает человек, с поправкой на солнечный нагрев. Характеристика знойности погоды. Зависит от высоты солнца над горизонтом, облачности и скорости ветра. Ночью, в пасмурную погоду, а также при ветре 12 м/с и более поправка равна нулю.
P - Атмосферное давление - приведенное к уровню моря атмосферное давление.
Po - Атмосферное давление - измеренное на уровне метеостанции атмосферное давление.
Tmin - Минимальная температура - минимум температуры воздуха на высоте 2 м над землей.
Tmax - Максимальная температура - максимум температуры воздуха на высоте 2 м над землей.
R - Количество осадков - Количество выпавших осадков за период времени, мм. При наведении курсора мыши на число - период времени, за который выпало указанное количество осадков.
R24 - Количество осадков - Количество выпавших осадков за 24 часа, мм.
S - Снежный покров - Высота снежного покрова, см. При наведении курсора мыши на число - состояние снежного покрова и степень покрытия местности в баллах.